Location: Moscow
(38.8570°N, 84.2291°W)
Time: 22:31:17
(UTC+00:00)

EO-79 - Visible Passes

Search period start: 14 March 2026 00:00
Search period end: 24 March 2026 00:00
Orbit: 510 x 522 km, 98.1° (Epoch: 14 March)

Date Brightness Start Highest point End Pass type
(mag) Time Alt. Az. Time Alt. Az. Time Alt. Az.
14 Mar ? 00:07:12 10° WSW 00:07:56 10° W 00:08:41 10° W visible
15 Mar ? 11:21:59 10° NNE 11:25:35 45° E 11:29:10 10° S visible
16 Mar ? 11:07:29 10° NE 11:10:46 28° E 11:14:02 10° SSE visible
17 Mar ? 10:53:13 10° NE 10:55:54 19° E 10:58:35 10° SE visible
18 Mar ? 10:39:25 10° ENE 10:40:59 12° E 10:42:32 10° ESE visible
23 Mar ? 10:57:54 10° NE 11:00:43 20° E 11:03:32 10° SE visible
